JINJUSAT-1B

Satellite information

Favourite Embed

Satellite Type and Status

PAYLOADIN ORBIT

Key statistics

Satellite JINJUSAT-1B at a glance.

Uptime

174

Days in orbit

Revolutions

≈ 15.2

Per day

Orbit

SSO

Sun Synchronous Orbit

Inclination

97.4

Latest

Satellite identification and parameters

Extended collection of information and parameters for JINJUSAT-1B.

Object identification

Identified? True

Debris? False

Object name: JINJUSAT-1B

International designator: 2025-052A

Object number (NORAD): 63210

Object ID (CCSDS): 63210

Country: SOUTH KOREA (SKOR)

Current information (Y/N): Y

RCS size: SMALL

Orbital parameters

Period: 94.581 minutes

Inclination: 97.429 deg

SMA: 6876.443 km

Apoapsis: 501.884 km

Periapsis: 494.732 km

RAAN: 140.283 deg

Eccentricy: 0.00052

Argument of periapsis: 45.2116 deg

Mean anomaly: 314.9542 deg

Mean motion: 15.22498925 rev/day

Mean motion (dot): 0.00016019 rev/day2

B* drag term: 0.00069327107 1/REarth

Two-line elements (TLE)

Creation date: Sept. 4, 2025, 10:13 a.m.

Reference frame: TEME

Reference center: EARTH

Epoch: Sept. 4, 2025, 5:05 a.m. UTC

TLE line 0: 0 JINJUSAT-1B

TLE line 1: 1 63210U 25052A 25247.21217480 .00016019 00000-0 69327-3 0 9998

TLE line 2: 2 63210 97.4290 140.2830 0005200 45.2116 314.9542 15.22498925 26428

Live tracking on map

Real-time ground track for satellite JINJUSAT-1B.

In-orbit conjunctions

There are no conjunctions computed for JINJUSAT-1B, at the moment. Check back to stay up to date, as we update our databases every day.

Go to all conjunctions

Associated space launch

Dedicated rideshare flight to a sun-synchronous orbit with dozens of small microsatellites and nanosatellites for commercial and government customers.

JINJUSAT-1B was lifted into orbit during the mission ‘Falcon 9 Block 5 | Transporter 13 (Dedicated SSO Rideshare)’, on board a Falcon 9 space rocket.

The launch took place on March 15, 2025, 6:43 a.m. from Space Launch Complex 4E.

For more information about the launch, click the button.

Launch to space Falcon 9 Block 5 | Transporter 13 (Dedicated SSO Rideshare)
Falcon 9 Block 5 | Transporter 13 (Dedicated SSO Rideshare)

Agency: SpaceX

Status: Launch Successful

Launch date: March 15, 2025, 6:43 a.m. UTC

Rocket: Falcon 9

Launch pad: Space Launch Complex 4E

Location: Vandenberg SFB, CA, USA

...

Latest news about this satellite

News about space launch
Varda Space reentry capsule lands in Australia, completes hypersonic research mission

W-3 focused on gathering data for military hypersonic research. The post Varda Space reentry capsule lands in Australia, completes hypersonic research mission appeared first on SpaceNews.

News about space launch
Intelligence and dual-use commercial satellites launch on Transporter-13

Among the 74 payloads on SpaceX’s Transporter-13 mission was a technology demonstrator from the National Reconnaissance Office The post Intelligence and dual-use commercial satellites launch on Transporter-13 appeared first on SpaceNews.

News about space launch
NASA’s EZIE Launches on Mission to Study Earth’s Electrojets

Under the nighttime California sky, NASA’s EZIE (Electrojet Zeeman Imaging Explorer) mission launched aboard a SpaceX Falcon 9 rocket at 11:43 p.m. PDT on March 14. Taking off from Vandenberg Space Force Base near Santa Barbara, the EZIE mission’s trio of...


Newsletter sign-up

Weekly statistics, charts and insights to help you stay on top of the space industry.